| time (UTC) | temp C | wind direction | speed KPH | gust KPH | rain 1hr cm | rain 24hr cm | rain mn cm | humidity % | barometer mb |
| 20260504130215 | 25 | 82 | 11.3 | 0.0 | 0.00 | 0.00 | 0.00 | 33 | 1008.9 |
| 20260504120210 | 22 | 13 | 14.5 | 0.0 | 0.00 | 0.00 | 0.00 | 42 | 1009.4 |
| 20260504110210 | 22 | 28 | 9.7 | 0.0 | 0.00 | 0.00 | 0.00 | 40 | 1010.1 |
| 20260504100212 | 22 | 188 | 6.4 | 0.0 | 0.00 | 0.00 | 0.00 | 36 | 1010.5 |
| 20260504080210 | 20 | 66 | 0.0 | 0.0 | 0.00 | 0.00 | 0.00 | 45 | 1011.3 |
| 20260504070211 | 15 | 182 | 0.0 | 0.0 | 0.00 | 0.00 | 0.00 | 65 | 1011.6 |
| 20260504060212 | 11 | 327 | 0.0 | 0.0 | 0.00 | 0.00 | 0.00 | 82 | 1011.8 |
| 20260504050210 | 8 | 327 | 0.0 | 0.0 | 0.00 | 0.00 | 0.00 | 78 | 1011.8 |
| 20260504043211 | 8 | 327 | 0.0 | 0.0 | 0.00 | 0.00 | 0.00 | 76 | 1011.8 |
| 20260504040211 | 9 | 327 | 0.0 | 0.0 | 0.00 | 0.00 | 0.00 | 74 | 1011.8 |
| 20260504033211 | 10 | 328 | 0.0 | 0.0 | 0.00 | 0.00 | 0.00 | 71 | 1012.2 |
| 20260504030212 | 10 | 328 | 0.0 | 0.0 | 0.00 | 0.00 | 0.00 | 71 | 1012.1 |
| 20260504023211 | 11 | 328 | 0.0 | 0.0 | 0.00 | 0.00 | 0.00 | 70 | 1012.2 |
| 20260504020212 | 11 | 28 | 6.4 | 0.0 | 0.00 | 0.00 | 0.00 | 70 | 1012.1 |
| 20260504013211 | 11 | 209 | 0.0 | 0.0 | 0.00 | 0.00 | 0.00 | 69 | 1012.0 |
| 20260504010211 | 11 | 207 | 0.0 | 0.0 | 0.00 | 0.00 | 0.00 | 68 | 1011.8 |
| 20260504003210 | 11 | 211 | 4.8 | 0.0 | 0.00 | 0.00 | 0.00 | 65 | 1012.2 |
| 20260504000208 | 12 | 216 | 4.8 | 0.0 | 0.00 | 0.00 | 0.00 | 64 | 1012.4 |
| 20260503233209 | 12 | 229 | 4.8 | 0.0 | 0.00 | 0.00 | 0.00 | 63 | 1012.5 |
| 20260503230209 | 13 | 262 | 3.2 | 0.0 | 0.00 | 0.00 | 0.00 | 61 | 1012.6 |
| 20260503223210 | 13 | 263 | 0.0 | 0.0 | 0.00 | 0.00 | 0.00 | 60 | 1012.7 |
| 20260503213210 | 14 | 295 | 0.0 | 0.0 | 0.00 | 0.00 | 0.00 | 53 | 1012.2 |
| 20260503210211 | 15 | 311 | 3.2 | 0.0 | 0.00 | 0.00 | 0.00 | 50 | 1012.0 |
| 20260503203209 | 16 | 304 | 8.0 | 0.0 | 0.00 | 0.00 | 0.00 | 48 | 1011.9 |
| 20260503200211 | 16 | 303 | 8.0 | 0.0 | 0.00 | 0.00 | 0.00 | 45 | 1011.3 |
| 20260503193210 | 17 | 311 | 8.0 | 0.0 | 0.00 | 0.00 | 0.00 | 43 | 1011.2 |
| 20260503190210 | 18 | 311 | 14.5 | 0.0 | 0.00 | 0.00 | 0.00 | 40 | 1010.9 |
| 20260503183209 | 19 | 295 | 22.5 | 0.0 | 0.00 | 0.00 | 0.00 | 38 | 1010.4 |
| 20260503180210 | 21 | 331 | 16.1 | 0.0 | 0.00 | 0.00 | 0.00 | 44 | 1009.7 |
| 20260503173209 | 22 | 28 | 14.5 | 0.0 | 0.00 | 0.00 | 0.00 | 41 | 1009.4 |
| 20260503170211 | 23 | 355 | 9.7 | 0.0 | 0.00 | 0.00 | 0.00 | 39 | 1009.4 |
| 20260503160211 | 23 | 300 | 9.7 | 0.0 | 0.00 | 0.00 | 0.00 | 30 | 1009.1 |
| 20260503150209 | 26 | 232 | 14.5 | 0.0 | 0.00 | 0.00 | 0.00 | 23 | 1009.4 |
| 20260503140210 | 27 | 315 | 12.9 | 0.0 | 0.00 | 0.00 | 0.00 | 21 | 1009.7 |